User: anonymous   Login
Location: Unspecified
(0.0000°N, 0.0000°E)
Time: 16:37:12
(UTC+00:00)
Language:

GONETS M 11 (M21) - Orbit

View from above orbital plane
View from above orbital plane
View from above satellite
View from above satellite

Ground track
Ground track

The orbit data is extracted from the following two-line orbital elements,

1 40552U 15020A   17204.92551745 +.00000010 +00000-0 +00000-0 0  9997
2 40552 082.4850 256.0931 0014768 248.6211 111.3294 12.42866881105004
Epoch (UTC): 23 July 2017 22:12:44
Eccentricity: 0.0014768
inclination: 82.4850°
perigee height: 1483 km
apogee height: 1506 km
right ascension of ascending node: 256.0931°
argument of perigee: 248.6211°
revolutions per day: 12.42866881
mean anomaly at epoch: 111.3294°
orbit number at epoch: 10500

The dashed part of the orbit path shows where the satellite is in the earth's shadow,  

DLR